HBLPT LESU-LEIB

Flight info

Callsign HBLPT
Flight time 1h 32m
Altitude 19000
Route REBUL M601 BCN Z174 CORDA
Aircraft C414/L-SBDFGRY/S

Departure

Time 2026-05-07 13:15
Airport Pirineus - la Seu d'Urgel Airport (LESU)

Arrival

Time 2026-05-07 14:47
Airport Ibiza Airport (LEIB)
Time Latitude Longitude Altitude Speed Heading
2026-05-07 13:02 42.33728 1.40502 2635 ft 0 kts 260°
2026-05-07 13:11 42.33724 1.40494 2635 ft 4 kts 212°
2026-05-07 13:11 42.33700 1.40528 2635 ft 8 kts 57°
2026-05-07 13:12 42.33734 1.40590 2635 ft 10 kts 111°
2026-05-07 13:12 42.33746 1.40674 2635 ft 11 kts 53°
2026-05-07 13:12 42.33803 1.40776 2635 ft 9 kts 51°
2026-05-07 13:12 42.33863 1.40866 2635 ft 19 kts 35°
2026-05-07 13:13 42.34000 1.40982 2635 ft 27 kts 31°
2026-05-07 13:13 42.34181 1.41131 2635 ft 33 kts 31°
2026-05-07 13:13 42.34381 1.41293 2635 ft 33 kts 32°
2026-05-07 13:13 42.34472 1.41377 2635 ft 4 kts 342°
2026-05-07 13:14 42.34460 1.41351 2635 ft 0 kts 209°
2026-05-07 13:14 42.34448 1.41342 2635 ft 15 kts 210°
2026-05-07 13:14 42.34189 1.41132 2635 ft 70 kts 211°
2026-05-07 13:15 42.33655 1.40699 2721 ft 102 kts 211°
2026-05-07 13:15 42.32992 1.40186 2995 ft 119 kts 209°
2026-05-07 13:15 42.32238 1.39594 3371 ft 129 kts 211°
2026-05-07 13:15 42.31505 1.38877 3855 ft 130 kts 220°
2026-05-07 13:16 42.30828 1.38000 4170 ft 137 kts 225°
2026-05-07 13:16 42.30166 1.37050 4428 ft 140 kts 225°
2026-05-07 13:16 42.29479 1.36106 4697 ft 143 kts 223°
2026-05-07 13:16 42.28626 1.35456 4976 ft 144 kts 193°
2026-05-07 13:17 42.27621 1.35479 5228 ft 147 kts 172°
2026-05-07 13:17 42.26614 1.35443 5486 ft 145 kts 193°
2026-05-07 13:17 42.25620 1.35204 5717 ft 146 kts 190°
2026-05-07 13:17 42.24609 1.35016 5963 ft 148 kts 189°
2026-05-07 13:18 42.23580 1.34829 6222 ft 150 kts 189°
2026-05-07 13:18 42.22548 1.34631 6474 ft 151 kts 190°
2026-05-07 13:18 42.21506 1.34427 6706 ft 151 kts 190°
2026-05-07 13:18 42.20458 1.34289 6951 ft 153 kts 176°
2026-05-07 13:19 42.19516 1.34924 7185 ft 158 kts 141°
2026-05-07 13:19 42.18653 1.35837 7435 ft 158 kts 149°
2026-05-07 13:19 42.17694 1.36597 7685 ft 161 kts 151°
2026-05-07 13:19 42.16720 1.37370 7931 ft 163 kts 150°
2026-05-07 13:20 42.15756 1.38177 8190 ft 164 kts 149°
2026-05-07 13:20 42.14787 1.39007 8456 ft 166 kts 149°
2026-05-07 13:20 42.13810 1.39847 8710 ft 168 kts 149°
2026-05-07 13:20 42.12823 1.40697 8965 ft 168 kts 148°
2026-05-07 13:21 42.11836 1.41550 9221 ft 168 kts 148°
2026-05-07 13:21 42.10832 1.42421 9406 ft 173 kts 148°
2026-05-07 13:21 42.09825 1.43293 9618 ft 175 kts 148°
2026-05-07 13:21 42.08796 1.44185 9828 ft 177 kts 147°
2026-05-07 13:22 42.07757 1.45084 10027 ft 178 kts 148°
2026-05-07 13:22 42.06710 1.45990 10221 ft 180 kts 148°
2026-05-07 13:22 42.05653 1.46903 10414 ft 181 kts 148°
2026-05-07 13:22 42.04594 1.47818 10609 ft 181 kts 148°
2026-05-07 13:23 42.03533 1.48736 10803 ft 182 kts 148°
2026-05-07 13:23 42.02467 1.49656 10998 ft 182 kts 148°
2026-05-07 13:23 42.01399 1.50578 11196 ft 182 kts 149°
2026-05-07 13:23 42.00333 1.51498 11397 ft 182 kts 148°
2026-05-07 13:24 41.99265 1.52419 11601 ft 183 kts 149°
2026-05-07 13:24 41.98196 1.53342 11803 ft 183 kts 149°
2026-05-07 13:24 41.97123 1.54267 12007 ft 183 kts 148°
2026-05-07 13:24 41.96052 1.55191 12210 ft 183 kts 149°
2026-05-07 13:25 41.94981 1.56113 12421 ft 183 kts 149°
2026-05-07 13:25 41.93895 1.57045 12581 ft 187 kts 150°
2026-05-07 13:25 41.92810 1.57977 12732 ft 189 kts 149°
2026-05-07 13:25 41.91687 1.58945 12894 ft 190 kts 149°
2026-05-07 13:26 41.90581 1.59895 13049 ft 191 kts 149°
2026-05-07 13:26 41.89456 1.60862 13206 ft 192 kts 150°
2026-05-07 13:26 41.88326 1.61833 13368 ft 193 kts 149°
2026-05-07 13:26 41.87192 1.62808 13527 ft 194 kts 149°
2026-05-07 13:27 41.86056 1.63782 13689 ft 194 kts 148°
2026-05-07 13:27 41.84913 1.64765 13842 ft 195 kts 150°
2026-05-07 13:27 41.83774 1.65743 13987 ft 195 kts 150°
2026-05-07 13:27 41.82634 1.66722 14134 ft 195 kts 149°
2026-05-07 13:28 41.81490 1.67702 14268 ft 195 kts 150°
2026-05-07 13:28 41.80350 1.68681 14420 ft 194 kts 149°
2026-05-07 13:28 41.79227 1.69644 14568 ft 194 kts 149°
2026-05-07 13:28 41.78073 1.70631 14719 ft 195 kts 149°
2026-05-07 13:29 41.76942 1.71597 14857 ft 196 kts 150°
2026-05-07 13:29 41.75793 1.72578 15001 ft 195 kts 151°
2026-05-07 13:29 41.74651 1.73554 15154 ft 194 kts 150°
2026-05-07 13:29 41.73512 1.74527 15308 ft 194 kts 152°
2026-05-07 13:30 41.72372 1.75501 15451 ft 194 kts 152°
2026-05-07 13:30 41.71230 1.76479 15601 ft 195 kts 150°
2026-05-07 13:30 41.70084 1.77455 15752 ft 195 kts 151°
2026-05-07 13:30 41.68939 1.78430 15903 ft 195 kts 152°
2026-05-07 13:31 41.67794 1.79406 16053 ft 195 kts 152°
2026-05-07 13:31 41.66652 1.80380 16220 ft 195 kts 152°
2026-05-07 13:31 41.65512 1.81352 16372 ft 194 kts 152°
2026-05-07 13:31 41.64369 1.82325 16526 ft 195 kts 152°
2026-05-07 13:32 41.63227 1.83297 16681 ft 195 kts 152°
2026-05-07 13:32 41.62081 1.84272 16838 ft 195 kts 152°
2026-05-07 13:32 41.60939 1.85245 16998 ft 195 kts 151°
2026-05-07 13:32 41.59787 1.86223 17160 ft 196 kts 152°
2026-05-07 13:33 41.58634 1.87203 17324 ft 196 kts 152°
2026-05-07 13:33 41.57476 1.88185 17488 ft 197 kts 152°
2026-05-07 13:33 41.56322 1.89165 17647 ft 197 kts 152°
2026-05-07 13:33 41.55163 1.90148 17810 ft 198 kts 152°
2026-05-07 13:34 41.54015 1.91120 17961 ft 198 kts 152°
2026-05-07 13:34 41.51686 1.93095 18283 ft 198 kts 153°
2026-05-07 13:34 41.50520 1.94083 18429 ft 198 kts 152°
2026-05-07 13:35 41.49350 1.95073 18574 ft 200 kts 152°
2026-05-07 13:35 41.48572 1.95731 18667 ft 200 kts 153°
2026-05-07 13:35 41.47397 1.96726 18807 ft 200 kts 153°
2026-05-07 13:35 41.46218 1.97723 18951 ft 201 kts 153°
2026-05-07 13:36 41.45020 1.98733 18986 ft 207 kts 153°
2026-05-07 13:36 41.43786 1.99770 18990 ft 212 kts 152°
2026-05-07 13:36 41.42534 2.00826 18995 ft 215 kts 153°
2026-05-07 13:36 41.41265 2.01896 18996 ft 217 kts 152°
2026-05-07 13:37 41.39988 2.02974 19008 ft 217 kts 152°
2026-05-07 13:37 41.38729 2.04040 18995 ft 212 kts 152°
2026-05-07 13:37 41.37491 2.05086 19004 ft 209 kts 153°
2026-05-07 13:37 41.36269 2.06118 19009 ft 207 kts 153°
2026-05-07 13:38 41.35054 2.07144 18996 ft 206 kts 153°
2026-05-07 13:38 41.33846 2.08161 18996 ft 204 kts 152°
2026-05-07 13:38 41.32647 2.09170 18996 ft 203 kts 152°
2026-05-07 13:38 41.31451 2.10175 18999 ft 202 kts 153°
2026-05-07 13:39 41.30174 2.10870 19004 ft 197 kts 173°
2026-05-07 13:39 41.28841 2.11081 19000 ft 195 kts 177°
2026-05-07 13:39 41.27492 2.11304 18999 ft 195 kts 176°
2026-05-07 13:39 41.26143 2.11537 18999 ft 195 kts 176°
2026-05-07 13:40 41.24791 2.11772 18999 ft 196 kts 176°
2026-05-07 13:40 41.23441 2.12003 18999 ft 196 kts 176°
2026-05-07 13:40 41.22094 2.12232 19001 ft 196 kts 176°
2026-05-07 13:40 41.20746 2.12460 18998 ft 196 kts 176°
2026-05-07 13:41 41.19394 2.12688 18998 ft 196 kts 176°
2026-05-07 13:41 41.18047 2.12915 18998 ft 195 kts 176°
2026-05-07 13:41 41.16695 2.13141 18998 ft 196 kts 176°
2026-05-07 13:41 41.15349 2.13367 18995 ft 196 kts 176°
2026-05-07 13:42 41.14000 2.13592 18997 ft 196 kts 176°
2026-05-07 13:42 41.12651 2.13818 18997 ft 195 kts 176°
2026-05-07 13:42 41.11319 2.14041 18996 ft 195 kts 176°
2026-05-07 13:42 41.09971 2.14267 18993 ft 195 kts 176°
2026-05-07 13:43 41.08622 2.14492 18993 ft 195 kts 176°
2026-05-07 13:43 41.07277 2.14717 18991 ft 195 kts 176°
2026-05-07 13:43 41.05929 2.14942 18986 ft 195 kts 176°
2026-05-07 13:43 41.04583 2.15167 18985 ft 195 kts 176°
2026-05-07 13:44 41.03236 2.15391 18984 ft 195 kts 176°
2026-05-07 13:44 41.01885 2.15617 18987 ft 195 kts 176°
2026-05-07 13:44 41.00538 2.15841 18987 ft 195 kts 176°
2026-05-07 13:44 40.99193 2.16066 18984 ft 195 kts 176°
2026-05-07 13:45 40.97849 2.16289 18981 ft 195 kts 176°
2026-05-07 13:45 40.96503 2.16514 18976 ft 195 kts 176°
2026-05-07 13:45 40.95156 2.16738 18975 ft 195 kts 176°
2026-05-07 13:45 40.93809 2.16962 18974 ft 195 kts 176°
2026-05-07 13:46 40.92468 2.17185 18974 ft 195 kts 176°
2026-05-07 13:46 40.91119 2.17410 18974 ft 195 kts 176°
2026-05-07 13:46 40.89771 2.17634 18974 ft 195 kts 176°
2026-05-07 13:46 40.88426 2.17858 18968 ft 195 kts 177°
2026-05-07 13:47 40.87101 2.18078 18972 ft 194 kts 177°
2026-05-07 13:47 40.85762 2.18300 18972 ft 194 kts 177°
2026-05-07 13:47 40.84422 2.18522 18974 ft 194 kts 177°
2026-05-07 13:47 40.83082 2.18744 18974 ft 194 kts 177°
2026-05-07 13:48 40.81744 2.18966 18974 ft 193 kts 177°
2026-05-07 13:48 40.80409 2.19187 18974 ft 193 kts 177°
2026-05-07 13:48 40.79091 2.19406 18974 ft 193 kts 177°
2026-05-07 13:48 40.77744 2.19629 18974 ft 193 kts 177°
2026-05-07 13:49 40.76426 2.19847 18974 ft 193 kts 177°
2026-05-07 13:49 40.75095 2.20067 18974 ft 193 kts 177°
2026-05-07 13:49 40.73763 2.20288 18974 ft 193 kts 177°
2026-05-07 13:49 40.72434 2.20507 18975 ft 193 kts 177°
2026-05-07 13:50 40.71095 2.20729 18972 ft 193 kts 177°
2026-05-07 13:50 40.69769 2.20947 18976 ft 193 kts 177°
2026-05-07 13:50 40.68439 2.21167 18974 ft 193 kts 177°
2026-05-07 13:50 40.67105 2.21387 18976 ft 193 kts 177°
2026-05-07 13:51 40.65774 2.21607 18972 ft 193 kts 177°
2026-05-07 13:51 40.64441 2.21827 18972 ft 193 kts 177°
2026-05-07 13:51 40.63110 2.22046 18971 ft 193 kts 177°
2026-05-07 13:51 40.61775 2.22266 18968 ft 193 kts 177°
2026-05-07 13:52 40.60443 2.22486 18966 ft 193 kts 177°
2026-05-07 13:52 40.59126 2.22703 18966 ft 193 kts 177°
2026-05-07 13:52 40.57796 2.22922 18966 ft 193 kts 177°
2026-05-07 13:52 40.56465 2.23140 18966 ft 193 kts 177°
2026-05-07 13:53 40.55134 2.23360 18969 ft 193 kts 177°
2026-05-07 13:53 40.53801 2.23578 18969 ft 193 kts 177°
2026-05-07 13:53 40.52469 2.23798 18971 ft 193 kts 177°
2026-05-07 13:53 40.51136 2.24016 18973 ft 193 kts 177°
2026-05-07 13:54 40.49804 2.24235 18971 ft 193 kts 177°
2026-05-07 13:54 40.48475 2.24453 18969 ft 193 kts 177°
2026-05-07 13:54 40.47143 2.24672 18969 ft 193 kts 177°
2026-05-07 13:54 40.45812 2.24890 18969 ft 193 kts 177°
2026-05-07 13:55 40.44481 2.25108 18961 ft 192 kts 176°
2026-05-07 13:55 40.43155 2.25326 18961 ft 192 kts 177°
2026-05-07 13:55 40.41833 2.25492 18962 ft 189 kts 186°
2026-05-07 13:55 40.40599 2.25016 18968 ft 186 kts 206°
2026-05-07 13:56 40.39428 2.24304 18963 ft 186 kts 205°
2026-05-07 13:56 40.38262 2.23624 18962 ft 186 kts 205°
2026-05-07 13:56 40.37078 2.22939 18964 ft 186 kts 205°
2026-05-07 13:56 40.35893 2.22252 18963 ft 186 kts 205°
2026-05-07 13:57 40.34709 2.21564 18959 ft 186 kts 205°
2026-05-07 13:57 40.33524 2.20873 18961 ft 186 kts 205°
2026-05-07 13:57 40.32338 2.20181 18964 ft 186 kts 205°
2026-05-07 13:57 40.31153 2.19489 18960 ft 187 kts 205°
2026-05-07 13:58 40.29967 2.18796 18961 ft 187 kts 205°
2026-05-07 13:58 40.28780 2.18102 18963 ft 187 kts 205°
2026-05-07 13:58 40.27596 2.17411 18961 ft 187 kts 205°
2026-05-07 13:58 40.26410 2.16719 18956 ft 187 kts 205°
2026-05-07 13:59 40.25222 2.16026 18962 ft 187 kts 205°
2026-05-07 13:59 40.24034 2.15332 18958 ft 187 kts 205°
2026-05-07 13:59 40.22848 2.14641 18961 ft 187 kts 204°
2026-05-07 13:59 40.21676 2.13963 18963 ft 186 kts 201°
2026-05-07 14:00 40.20406 2.13896 18959 ft 190 kts 163°
2026-05-07 14:00 40.19265 2.14801 18963 ft 194 kts 147°
2026-05-07 14:00 40.18204 2.15897 18960 ft 195 kts 147°
2026-05-07 14:00 40.17136 2.16992 18960 ft 195 kts 147°
2026-05-07 14:01 40.16066 2.18089 18963 ft 195 kts 147°
2026-05-07 14:01 40.14998 2.19187 18962 ft 196 kts 147°
2026-05-07 14:01 40.13927 2.20289 18958 ft 196 kts 147°
2026-05-07 14:01 40.12857 2.21389 18965 ft 196 kts 147°
2026-05-07 14:02 40.11786 2.22491 18957 ft 196 kts 147°
2026-05-07 14:02 40.10716 2.23593 18958 ft 196 kts 147°
2026-05-07 14:02 40.09645 2.24695 18955 ft 196 kts 147°
2026-05-07 14:02 40.08574 2.25797 18955 ft 196 kts 147°
2026-05-07 14:03 40.07503 2.26898 18955 ft 196 kts 147°
2026-05-07 14:03 40.06445 2.27986 18955 ft 196 kts 147°
2026-05-07 14:03 40.05375 2.29087 18939 ft 196 kts 147°
2026-05-07 14:03 40.04303 2.30188 18946 ft 196 kts 147°
2026-05-07 14:04 40.03234 2.31288 18950 ft 196 kts 147°
2026-05-07 14:04 40.02167 2.32385 18952 ft 196 kts 147°
2026-05-07 14:04 40.01095 2.33487 18953 ft 196 kts 147°
2026-05-07 14:04 40.00022 2.34589 18945 ft 196 kts 147°
2026-05-07 14:05 39.98954 2.35687 18949 ft 196 kts 147°
2026-05-07 14:05 39.97882 2.36788 18950 ft 196 kts 147°
2026-05-07 14:05 39.96811 2.37888 18950 ft 196 kts 147°
2026-05-07 14:05 39.95741 2.38988 18950 ft 196 kts 147°
2026-05-07 14:06 39.94682 2.40075 18948 ft 196 kts 147°
2026-05-07 14:06 39.93611 2.41175 18948 ft 196 kts 147°
2026-05-07 14:06 39.92542 2.42273 18948 ft 196 kts 147°
2026-05-07 14:06 39.91448 2.43315 18942 ft 193 kts 154°
2026-05-07 14:07 39.90235 2.44010 18946 ft 189 kts 167°
2026-05-07 14:07 39.88951 2.44328 18948 ft 188 kts 177°
2026-05-07 14:07 39.87652 2.44394 18947 ft 187 kts 183°
2026-05-07 14:07 39.86354 2.44318 18947 ft 186 kts 186°
2026-05-07 14:08 39.85070 2.44173 18942 ft 186 kts 187°
2026-05-07 14:08 39.83784 2.43995 18942 ft 186 kts 188°
2026-05-07 14:08 39.82497 2.43803 18943 ft 186 kts 188°
2026-05-07 14:08 39.81213 2.43608 18943 ft 186 kts 188°
2026-05-07 14:09 39.79945 2.43413 18945 ft 186 kts 188°
2026-05-07 14:09 39.78659 2.43216 18944 ft 186 kts 188°
2026-05-07 14:09 39.77374 2.43018 18934 ft 186 kts 187°
2026-05-07 14:09 39.76086 2.42821 18939 ft 186 kts 187°
2026-05-07 14:10 39.74800 2.42623 18941 ft 186 kts 187°
2026-05-07 14:10 39.73511 2.42426 18941 ft 187 kts 187°
2026-05-07 14:10 39.72219 2.42228 18942 ft 187 kts 187°
2026-05-07 14:10 39.70929 2.42031 18941 ft 187 kts 187°
2026-05-07 14:11 39.69638 2.41832 18942 ft 187 kts 187°
2026-05-07 14:11 39.68348 2.41635 18941 ft 186 kts 187°
2026-05-07 14:11 39.67058 2.41437 18941 ft 186 kts 187°
2026-05-07 14:11 39.65768 2.41240 18941 ft 186 kts 187°
2026-05-07 14:12 39.64485 2.41044 18941 ft 185 kts 187°
2026-05-07 14:12 39.63208 2.40849 18941 ft 185 kts 187°
2026-05-07 14:12 39.61934 2.40655 18938 ft 184 kts 187°
2026-05-07 14:12 39.60665 2.40461 18941 ft 183 kts 187°
2026-05-07 14:13 39.59398 2.40267 18942 ft 183 kts 187°
2026-05-07 14:13 39.58130 2.40073 18940 ft 183 kts 187°
2026-05-07 14:13 39.56875 2.39882 18939 ft 183 kts 187°
2026-05-07 14:13 39.55620 2.39688 18940 ft 182 kts 189°
2026-05-07 14:14 39.54438 2.39119 18935 ft 183 kts 213°
2026-05-07 14:14 39.53415 2.38129 18937 ft 184 kts 214°
2026-05-07 14:14 39.52361 2.37149 18936 ft 184 kts 214°
2026-05-07 14:14 39.51320 2.36187 18936 ft 184 kts 214°
2026-05-07 14:15 39.50293 2.35235 18938 ft 185 kts 214°
2026-05-07 14:15 39.49245 2.34260 18939 ft 187 kts 214°
2026-05-07 14:15 39.48186 2.33273 18939 ft 188 kts 214°
2026-05-07 14:15 39.47120 2.32279 18938 ft 189 kts 214°
2026-05-07 14:16 39.46050 2.31280 18935 ft 190 kts 214°
2026-05-07 14:16 39.44974 2.30278 18935 ft 191 kts 214°
2026-05-07 14:16 39.43897 2.29273 18935 ft 191 kts 214°
2026-05-07 14:16 39.42820 2.28270 18943 ft 191 kts 214°
2026-05-07 14:17 39.41742 2.27266 18941 ft 191 kts 214°
2026-05-07 14:17 39.40669 2.26267 18939 ft 191 kts 214°
2026-05-07 14:17 39.39592 2.25265 18938 ft 190 kts 214°
2026-05-07 14:17 39.38533 2.24281 18937 ft 190 kts 214°
2026-05-07 14:18 39.37460 2.23283 18931 ft 190 kts 214°
2026-05-07 14:18 39.36387 2.22286 18931 ft 190 kts 214°
2026-05-07 14:18 39.35313 2.21289 18931 ft 190 kts 214°
2026-05-07 14:18 39.34243 2.20295 18931 ft 190 kts 214°
2026-05-07 14:19 39.33170 2.19300 18934 ft 190 kts 214°
2026-05-07 14:19 39.32091 2.18299 18927 ft 190 kts 214°
2026-05-07 14:19 39.31020 2.17306 18930 ft 190 kts 214°
2026-05-07 14:19 39.29943 2.16308 18930 ft 191 kts 214°
2026-05-07 14:20 39.28859 2.15303 18931 ft 191 kts 214°
2026-05-07 14:20 39.28152 2.14648 18929 ft 191 kts 214°
2026-05-07 14:20 39.26705 2.13308 18937 ft 191 kts 214°
2026-05-07 14:20 39.25989 2.12645 18937 ft 191 kts 214°
2026-05-07 14:21 39.24555 2.11319 18934 ft 191 kts 214°
2026-05-07 14:21 39.23470 2.10315 18934 ft 192 kts 214°
2026-05-07 14:21 39.22388 2.09315 18934 ft 192 kts 214°
2026-05-07 14:21 39.21670 2.08651 18934 ft 192 kts 214°
2026-05-07 14:22 39.20222 2.07314 18934 ft 192 kts 214°
2026-05-07 14:22 39.19497 2.06643 18931 ft 192 kts 214°
2026-05-07 14:22 39.18420 2.05650 18932 ft 192 kts 214°
2026-05-07 14:22 39.17334 2.04647 18931 ft 192 kts 214°
2026-05-07 14:23 39.16249 2.03647 18928 ft 192 kts 214°
2026-05-07 14:23 39.15167 2.02649 18928 ft 192 kts 214°
2026-05-07 14:23 39.14081 2.01649 18929 ft 192 kts 214°
2026-05-07 14:23 39.13000 2.00651 18928 ft 192 kts 214°
2026-05-07 14:24 39.11913 1.99651 18932 ft 192 kts 214°
2026-05-07 14:24 39.10830 1.98653 18932 ft 192 kts 214°
2026-05-07 14:24 39.09745 1.97656 18929 ft 192 kts 214°
2026-05-07 14:24 39.08657 1.96655 18930 ft 192 kts 214°
2026-05-07 14:25 39.07568 1.95653 18928 ft 192 kts 214°
2026-05-07 14:25 39.06480 1.94653 18928 ft 192 kts 214°
2026-05-07 14:25 39.05390 1.93651 18929 ft 192 kts 214°
2026-05-07 14:25 39.04314 1.92664 18929 ft 192 kts 214°
2026-05-07 14:26 39.03226 1.91664 18928 ft 192 kts 214°
2026-05-07 14:26 39.02137 1.90665 18935 ft 192 kts 213°
2026-05-07 14:26 39.01051 1.89668 18930 ft 192 kts 213°
2026-05-07 14:26 38.99961 1.88668 18928 ft 192 kts 213°
2026-05-07 14:27 38.98877 1.87665 18924 ft 192 kts 216°
2026-05-07 14:27 38.97956 1.86412 18924 ft 195 kts 232°
2026-05-07 14:27 38.97216 1.84949 18923 ft 195 kts 233°
2026-05-07 14:27 38.96457 1.83506 18923 ft 195 kts 232°
2026-05-07 14:28 38.95694 1.82061 18925 ft 195 kts 232°
2026-05-07 14:28 38.94934 1.80617 18925 ft 195 kts 232°
2026-05-07 14:28 38.94175 1.79171 18925 ft 195 kts 233°
2026-05-07 14:28 38.93417 1.77724 18925 ft 195 kts 233°
2026-05-07 14:29 38.92658 1.76275 18925 ft 195 kts 233°
2026-05-07 14:29 38.91900 1.74830 18922 ft 195 kts 233°
2026-05-07 14:29 38.91143 1.73384 18922 ft 195 kts 232°
2026-05-07 14:29 38.90388 1.71944 18921 ft 195 kts 233°
2026-05-07 14:30 38.89628 1.70494 18907 ft 196 kts 232°
2026-05-07 14:30 38.88848 1.69011 18646 ft 204 kts 233°
2026-05-07 14:30 38.88045 1.67482 18387 ft 209 kts 233°
2026-05-07 14:30 38.87226 1.65922 18125 ft 212 kts 232°
2026-05-07 14:31 38.86399 1.64346 17831 ft 214 kts 232°
2026-05-07 14:31 38.85563 1.62754 17536 ft 216 kts 232°
2026-05-07 14:31 38.84735 1.61178 17250 ft 216 kts 232°
2026-05-07 14:31 38.83917 1.59526 16958 ft 218 kts 240°
2026-05-07 14:32 38.83451 1.57682 16678 ft 222 kts 251°
2026-05-07 14:32 38.83040 1.55784 16397 ft 222 kts 250°
2026-05-07 14:32 38.82619 1.53880 16127 ft 222 kts 250°
2026-05-07 14:32 38.82194 1.51971 15844 ft 222 kts 251°
2026-05-07 14:33 38.81772 1.50065 15560 ft 222 kts 251°
2026-05-07 14:33 38.81342 1.48131 15065 ft 228 kts 251°
2026-05-07 14:33 38.80907 1.46166 14582 ft 230 kts 252°
2026-05-07 14:33 38.80468 1.44188 14106 ft 231 kts 252°
2026-05-07 14:34 38.79897 1.42276 13625 ft 230 kts 240°
2026-05-07 14:34 38.79142 1.40476 13078 ft 230 kts 239°
2026-05-07 14:34 38.78394 1.38665 12503 ft 230 kts 240°
2026-05-07 14:34 38.77652 1.36860 11941 ft 229 kts 239°
2026-05-07 14:35 38.76908 1.35056 11382 ft 229 kts 239°
2026-05-07 14:35 38.76163 1.33252 10845 ft 228 kts 239°
2026-05-07 14:35 38.75422 1.31459 10311 ft 228 kts 240°
2026-05-07 14:35 38.74690 1.29691 9787 ft 227 kts 240°
2026-05-07 14:36 38.73957 1.27922 9234 ft 225 kts 239°
2026-05-07 14:36 38.73227 1.26165 8718 ft 223 kts 240°
2026-05-07 14:36 38.72498 1.24419 8204 ft 222 kts 240°
2026-05-07 14:36 38.71772 1.22678 7696 ft 221 kts 240°
2026-05-07 14:37 38.71049 1.20946 7203 ft 220 kts 240°
2026-05-07 14:37 38.69610 1.17504 6227 ft 218 kts 241°
2026-05-07 14:37 38.68898 1.15800 5708 ft 216 kts 241°
2026-05-07 14:38 38.68195 1.14117 5220 ft 216 kts 241°
2026-05-07 14:38 38.67488 1.12428 4719 ft 216 kts 241°
2026-05-07 14:38 38.66787 1.10751 4213 ft 213 kts 241°
2026-05-07 14:38 38.66242 1.09027 3703 ft 211 kts 265°
2026-05-07 14:39 38.66661 1.07315 3317 ft 205 kts 313°
2026-05-07 14:39 38.67872 1.06556 2996 ft 193 kts
2026-05-07 14:39 38.69072 1.06928 3063 ft 169 kts 22°
2026-05-07 14:39 38.70141 1.07395 3097 ft 165 kts 18°
2026-05-07 14:40 38.71270 1.07712 3119 ft 169 kts 12°
2026-05-07 14:40 38.72434 1.07978 3116 ft 171 kts 14°
2026-05-07 14:40 38.73592 1.08295 3116 ft 171 kts 18°
2026-05-07 14:40 38.74513 1.09134 3140 ft 163 kts 56°
2026-05-07 14:41 38.75178 1.10313 3175 ft 164 kts 56°
2026-05-07 14:41 38.75837 1.11510 3185 ft 165 kts 57°
2026-05-07 14:41 38.76473 1.12692 3189 ft 157 kts 57°
2026-05-07 14:41 38.77077 1.13830 3192 ft 150 kts 57°
2026-05-07 14:42 38.77648 1.14916 3194 ft 143 kts 58°
2026-05-07 14:42 38.78194 1.15959 3197 ft 139 kts 58°
2026-05-07 14:42 38.78721 1.16973 3200 ft 135 kts 58°
2026-05-07 14:42 38.79223 1.17957 3138 ft 133 kts 59°
2026-05-07 14:43 38.79718 1.18998 2916 ft 140 kts 62°
2026-05-07 14:43 38.80181 1.20095 2767 ft 139 kts 65°
2026-05-07 14:43 38.80619 1.21211 2571 ft 142 kts 64°
2026-05-07 14:43 38.81072 1.22338 2378 ft 143 kts 63°
2026-05-07 14:44 38.81535 1.23447 2173 ft 143 kts 63°
2026-05-07 14:44 38.82000 1.24567 1997 ft 142 kts 63°
2026-05-07 14:44 38.82469 1.25686 1800 ft 143 kts 63°
2026-05-07 14:44 38.82935 1.26812 1612 ft 143 kts 62°
2026-05-07 14:45 38.83402 1.27943 1417 ft 144 kts 63°
2026-05-07 14:45 38.83869 1.29087 1223 ft 146 kts 62°
2026-05-07 14:45 38.84330 1.30192 994 ft 134 kts 62°
2026-05-07 14:45 38.84736 1.31162 877 ft 118 kts 63°
2026-05-07 14:46 38.85120 1.32078 713 ft 116 kts 63°
2026-05-07 14:46 38.85478 1.32921 560 ft 101 kts 64°
2026-05-07 14:46 38.85796 1.33672 404 ft 91 kts 63°
2026-05-07 14:46 38.86084 1.34384 310 ft 89 kts 63°
2026-05-07 14:47 38.86375 1.35085 234 ft 89 kts 66°
2026-05-07 14:47 38.86655 1.35786 100 ft 86 kts 64°
2026-05-07 14:47 38.86918 1.36424 26 ft 70 kts 65°
2026-05-07 14:47 38.87107 1.36882 25 ft 49 kts 62°
2026-05-07 14:48 38.87253 1.37237 25 ft 43 kts 62°
2026-05-07 14:48 38.87366 1.37422 24 ft 22 kts 35°
2026-05-07 14:48 38.87481 1.37521 24 ft 19 kts 32°
2026-05-07 14:48 38.87590 1.37554 24 ft 16 kts 330°
2026-05-07 14:49 38.87679 1.37492 25 ft 10 kts 327°
2026-05-07 14:49 38.87722 1.37542 25 ft 11 kts 60°
2026-05-07 14:49 38.87765 1.37646 25 ft 15 kts 63°
2026-05-07 14:49 38.87825 1.37707 24 ft 13 kts 329°
2026-05-07 14:50 38.87885 1.37683 24 ft 5 kts 63°
2026-05-07 14:50 38.87888 1.37692 24 ft 0 kts 63°